Regional Weather Roundup
Issued by NWS Wilmington, NC

Home | Current Version | Previous Version | Text Only | Print | Product List | Glossary On
Versions: 1 2 3 4 5 6 7 8 9 10 11 12 13 14 15 16 17 18 19 20 21 22 23 24 25 26 27 28 29 30 31 32 33 34 35 36 37 38 39 40 41 42 43 44 45 46 47 48 49 50
000
ASUS42 KILM 251513
RWRILM
RWRILM
REGIONAL HOURLY WEATHER ROUNDUP
NATIONAL WEATHER SERVICE WILMINGTON NC
1100 AM EDT MON JUL 25 2016

NOTE: "FAIR" INDICATES FEW OR NO CLOUDS BELOW 12,000 FEET WITH NO
SIGNIFICANT WEATHER AND/OR OBSTRUCTIONS TO VISIBILITY.

...............WFO WILMINGTON COUNTY WARNING AREA...............

......COASTAL NC AND SC COUNTIES......

CITY           SKY/WX    TMP DP  RH WIND       PRES   REMARKS
WILMINGTON     SUNNY     88  75  65 SW7       30.07F HX  97
N MYRTLE BEACH MOSUNNY   87  75  67 W7        30.08F HX  96
MYRTLE BEACH   PTSUNNY   90  72  55 SW8       30.11S HX  96

......INLAND NC AND SC COUNTIES.......

CITY           SKY/WX    TMP DP  RH WIND       PRES   REMARKS
LUMBERTON      MOSUNNY   88  74  63 SW8       30.07S HX  96
ELIZABETHTOWN  SUNNY     88  73  61 SW8       30.08S HX  96
WHITEVILLE     SUNNY     87  74  64 SW6       30.08S HX  96
FLORENCE       SUNNY     88  71  57 W9        30.08S HX  94
DARLINGTON     SUNNY     86  76  71 SW9       30.08S HX  96
KINGSTREE      FAIR      86  70  58 SW8       30.09S HX  90
HARTSVILLE     FAIR      88  72  58 SW7       30.08R HX  94
BENNETTSVILLE  FAIR      90  79  70 S7        30.07S HX 105
CONWAY         FAIR      86  73  66 W6        30.09S HAZE    HX  93
GEORGETOWN     PTSUNNY   88  73  62 SW7       30.10S HX  96
MARION           N/A     86  72  62 W7        30.08S HX  92

....................REST OF NORTH CAROLINA......................

.........EASTERN NC.........

CITY           SKY/WX    TMP DP  RH WIND       PRES   REMARKS
CAPE HATTERAS  SUNNY     85  78  80 SW8       30.08R HX  96
JACKSONVILLE   SUNNY     90  78  68 SW8       30.07S HX 104
MOREHEAD CITY  SUNNY     86  78  77 SW12      30.07S HX  98
KENANSVILLE    NOT AVBL
NEW BERN       SUNNY     89  76  65 W7        30.07S HX 100
ELIZABETH CITY SUNNY     88  78  72 SW8       30.04R HX 101

.........CENTRAL NC.........

CITY           SKY/WX    TMP DP  RH WIND       PRES   REMARKS
RALEIGH DURHAM MOSUNNY   88  77  69 W7        30.05S HX 100
ROCKY MOUNT    SUNNY     89  79  72 S8        30.04F HX 104
ROANOKE RAPIDS NOT AVBL
FAYETTEVILLE   SUNNY     90  74  59 SW9       30.06S HX  99
HOFFMAN        SUNNY     88  74  62 W6        30.06F HX  96

.........WESTERN NC.........

CITY           SKY/WX    TMP DP  RH WIND       PRES   REMARKS
CHARLOTTE      SUNNY     88  72  58 S6        30.07F HX  94
GREENSBORO     CLOUDY    89  73  59 S7        30.06F HX  97
HICKORY        NOT AVBL
BOONE          NOT AVBL
ASHEVILLE      NOT AVBL

.....................REST OF SOUTH CAROLINA.....................

.........EASTERN SC.........

CITY           SKY/WX    TMP DP  RH WIND       PRES   REMARKS
CHARLESTON     MOSUNNY   88  74  63 S6        30.09F HX  96
BEAUFORT MCAS  MOSUNNY   90  71  53 VRB6      30.09F HX  96
HILTON HEAD    MOSUNNY   93  73  52 SW5       30.10F HX 102

.........CENTRAL SC.........

CITY           SKY/WX    TMP DP  RH WIND       PRES   REMARKS
COLUMBIA       PTSUNNY   87  72  60 W6        30.08S HX  93
ORANGEBURG     SUNNY     87  73  62 S6        30.09S HX  94
SUMTER SHAW    NOT AVBL

.........WESTERN SC.........

CITY           SKY/WX    TMP DP  RH WIND       PRES   REMARKS
GREENVILLE     NOT AVBL
ROCK HILL      SUNNY     89  72  56 SW7       30.08F HX  96
ANDERSON       SUNNY     89  71  55 W5        30.08F HX  95
CLEMSON        NOT AVBL
GREENWOOD      SUNNY     89  71  55 VRB3      30.09F HX  95


...................COASTAL AND OFFSHORE REPORTS..................

................LOCAL PIERS AND NC RESERVE................


STATION/POSITION TIME  SKY/WX   TEMP    WIND        PRES    VSBY
                                AIR SEA DIR/SP/G
                 (UTC)          (F)     (DEG/KT/KT) (MB)    (MI)
JOHNY MRCER PIER 1400            86 81  230/  9/ 12 1017.6F
NC RESRV MASNBRO NOT AVBL
OCEAN CREST PIER NOT AVBL
SPRINGMAID  PIER 1400            84 84              1018.6S


................COASTAL AND OFFSHORE BUOYS................


STATION/POSITION TIME  SKY/WX   TEMP    WIND        PRES    VSBY
                                AIR SEA DIR/SP/G
                 (UTC)          (F)     (DEG/KT/KT) (MB)    (MI)
DIMNDSHOAL 41025 1450            84 85  250/ 12/ 12 1018.5R
WVE H/P(F/S)=  3/ 5 SWL H/P/D(F/S/D)=  2/110/ 8

CAPE LOOKOUT     1500            85     240/ 11/ 12 1018.4R
ONSLOW BAY 41036 NOT AVBL
ONSLOW BAY 41064 1408            84 85  250/ 10/ 14 1018.5F
ONSLOW BAY 41159 1425               85                N/A
WVE H/P(F/S)=  3/ 4

5SE WRITBC 41038 1408            84 83  230/  8/ 10 1019.5F
MASNBO INL 41110 1406               84                N/A
WVE H/P(F/S)=  2/ 8

WILM HARBR 41108 1426               85                N/A
WVE H/P(F/S)=  3/ 4

27SE WRITB 41037 1408            81 84  250/  4/  8 1017.9F
FRYING PAN 41013 1500            84 85  220/  8/ 10 1019.0R
SUNST NRSH 41024 1408            84 84  240/ 12/ 16 1018.5F
CAPRS NRSH 41029 1408            84 84  210/  8/ 10 1019.0S
EDISTO     41004 1450            85 86  230/  6/  8 1018.9F
WVE H/P(F/S)=  2/ 8 SWL H/P/D(F/S/D)=  2/130/ 8



..........OFFSHORE BUOYS BEYOND 100 NM OFFSHORE...........
.....IN A TRIANGLE---HAT TO BERMUDA TO BAHAMAS TO HAT.....


STATION/POSITION TIME  SKY/WX   TEMP    WIND        PRES    VSBY
                                AIR SEA DIR/SP/G
                 (UTC)          (F)     (DEG/KT/KT) (MB)    (MI)
150E HAT   41001 NOT AVBL
W BERMUDA  41048 1450            83 84  240/  8/ 10 1020.4R
WVE H/P(F/S)=  2/ 8 SWL H/P/D(F/S/D)=  2/140/ 8

ATLANTIC S 41049 1450            83 86  160/  2/  4 1022.1R
WVE H/P(F/S)=  3/ 6 SWL H/P/D(F/S/D)=  3/120/ 6

E BAHAMAS  41046 1500            82 85  100/  8/ 10 1019.9R
NE BAHAMAS 41047 1500            84 85  130/  4/  6 1020.6R
120E CANVRL41010 1420            84 87  180/  4/  6 1019.4R

END



USA.gov is the U.S. government's official web portal to all federal, state and local government web resources and services.